sat.trackr.live / text

‹ back to catalog

STARLINK-32919

NORAD 63150 · 2025-043U

PAYLOAD ACTIVE UNKNOWN

§ Identity

Operator
Country
US
Launch date
2025-03-03
Launch site
AFETR
Launch vehicle
Mass (kg)
RCS (m²)

Purposes: comms

External: N2YO · Heavens-Above · Gunter

§ Orbital elements

Epoch: 2026-05-25T03:13:04.503360Z

Period
94.27 min
Inclination
43.0001°
Eccentricity
0.0001237
Mean motion
15.27587239 rev/d
Perigee alt
482.2 km
Apogee alt
483.9 km
Semi-major
6,861.2 km
B*
3.3915e-4
RAAN
304.5012°
Arg perigee
275.3538°
Mean anomaly
84.7172°
Rev number
6,905

§ Raw data

STARLINK-329191 63150U 25043U   26145.13407990  .00009084  00000+0  33915-3 0  99942 63150  43.0001 304.5012 0001237 275.3538  84.7172 15.27587239 69054

JSON: /api/v1/satellites/63150 · /tle

For live sub-satellite position, see the globe view (requires WebGL).

§ Visibility from observer

Set your observer location to see the next 7 days of passes ≥ 10°. The values pass through the URL so the page stays shareable.

No JS? Fill the form by hand. The geolocation button needs JavaScript.